TimeCST,TemperatureF,Dew PointF,Humidity,Sea Level PressureIn,VisibilityMPH,Wind Direction,Wind SpeedMPH,Gust SpeedMPH,PrecipitationIn,Events,Conditions,WindDirDegrees,DateUTC
12:15 AM,37.2,33.3,86,30.42,7.0,NNW,4.6,-,N/A,,Clear,330,2013-12-26 06:15:00
12:35 AM,36.9,33.1,86,30.41,7.0,NNW,5.8,-,N/A,,Clear,330,2013-12-26 06:35:00
12:55 AM,36.5,33.3,88,30.41,7.0,NW,4.6,-,N/A,,Clear,320,2013-12-26 06:55:00
1:15 AM,36.3,33.1,88,30.42,7.0,NNW,8.1,-,N/A,,Clear,340,2013-12-26 07:15:00
1:35 AM,36.0,32.9,89,30.42,7.0,NNW,6.9,-,N/A,,Clear,330,2013-12-26 07:35:00
1:55 AM,35.6,32.5,89,30.42,7.0,NNW,5.8,-,N/A,,Clear,330,2013-12-26 07:55:00
2:15 AM,35.1,32.5,91,30.42,7.0,NNW,4.6,-,N/A,,Clear,330,2013-12-26 08:15:00
2:35 AM,34.9,32.4,91,30.42,7.0,NNW,4.6,-,N/A,,Clear,330,2013-12-26 08:35:00
2:55 AM,34.9,32.9,92,30.42,7.0,NNW,4.6,-,N/A,,Clear,330,2013-12-26 08:55:00
3:15 AM,34.7,32.7,92,30.42,5.0,NW,4.6,-,N/A,,Clear,320,2013-12-26 09:15:00
3:35 AM,34.2,32.4,93,30.42,5.0,NW,5.8,-,N/A,,Clear,320,2013-12-26 09:35:00
3:55 AM,33.8,32.2,94,30.42,5.0,NW,4.6,-,N/A,,Clear,320,2013-12-26 09:55:00
4:15 AM,33.4,32.2,95,30.42,5.0,NW,3.5,-,N/A,,Clear,320,2013-12-26 10:15:00
4:35 AM,33.4,32.0,94,30.41,5.0,NNW,4.6,-,N/A,,Clear,330,2013-12-26 10:35:00
4:55 AM,33.3,32.2,96,30.41,5.0,NNW,4.6,-,N/A,,Clear,330,2013-12-26 10:55:00
5:15 AM,33.1,32.0,96,30.40,5.0,NNW,4.6,-,N/A,,Clear,340,2013-12-26 11:15:00
5:35 AM,33.1,32.0,96,30.41,5.0,NNW,4.6,-,N/A,,Clear,330,2013-12-26 11:35:00
5:55 AM,32.7,32.0,97,30.41,4.0,NNW,4.6,-,N/A,,Clear,330,2013-12-26 11:55:00
6:15 AM,32.7,32.0,97,30.41,4.0,NNW,5.8,-,N/A,,Clear,340,2013-12-26 12:15:00
6:35 AM,32.5,32.0,98,30.42,4.0,NNW,5.8,-,N/A,,Clear,340,2013-12-26 12:35:00
6:55 AM,32.0,31.5,98,30.42,4.0,North,4.6,-,N/A,,Clear,360,2013-12-26 12:55:00
7:15 AM,32.2,31.8,99,30.43,4.0,Calm,Calm,-,N/A,,Clear,0,2013-12-26 13:15:00
7:35 AM,32.0,31.6,99,30.43,2.5,Calm,Calm,-,N/A,,Mist,0,2013-12-26 13:35:00
7:55 AM,32.0,31.6,99,30.44,2.5,North,4.6,-,N/A,,Mist,360,2013-12-26 13:55:00
8:15 AM,33.1,32.2,96,30.44,2.5,Calm,Calm,-,N/A,,Mist,0,2013-12-26 14:15:00
8:35 AM,33.8,32.9,96,30.44,2.5,North,3.5,-,N/A,,Mist,350,2013-12-26 14:35:00
8:55 AM,34.5,33.3,95,30.46,3.0,Calm,Calm,-,N/A,,Mist,0,2013-12-26 14:55:00
9:15 AM,35.1,33.3,93,30.46,3.0,Calm,Calm,-,N/A,,Mist,0,2013-12-26 15:15:00
9:35 AM,36.0,33.8,92,30.47,4.0,Calm,Calm,-,N/A,,Clear,0,2013-12-26 15:35:00
9:55 AM,38.1,35.1,89,30.48,5.0,Calm,Calm,-,N/A,,Clear,0,2013-12-26 15:55:00
10:15 AM,41.5,35.2,78,30.47,5.0,Calm,Calm,-,N/A,,Haze,0,2013-12-26 16:15:00
10:35 AM,44.2,35.2,71,30.47,7.0,East,4.6,-,N/A,,Clear,90,2013-12-26 16:35:00
10:55 AM,45.1,35.8,70,30.47,5.0,East,4.6,-,N/A,,Haze,90,2013-12-26 16:55:00
11:15 AM,46.2,35.1,65,30.45,4.0,Calm,Calm,-,N/A,,Haze,0,2013-12-26 17:15:00
11:35 AM,47.8,36.0,63,30.44,3.0,Calm,Calm,-,N/A,,Haze,0,2013-12-26 17:35:00
11:55 AM,49.5,36.1,60,30.43,7.0,Calm,Calm,-,N/A,,Clear,0,2013-12-26 17:55:00
12:15 PM,50.0,36.3,59,30.42,10.0,East,3.5,-,N/A,,Clear,100,2013-12-26 18:15:00
12:35 PM,51.6,37.0,58,30.40,10.0,ESE,3.5,-,N/A,,Clear,110,2013-12-26 18:35:00
12:55 PM,52.7,36.1,53,30.39,10.0,NE,4.6,-,N/A,,Clear,50,2013-12-26 18:55:00
1:15 PM,51.8,36.1,55,30.39,10.0,NNW,3.5,-,N/A,,Clear,340,2013-12-26 19:15:00
1:35 PM,52.0,36.9,56,30.38,10.0,NW,4.6,-,N/A,,Clear,310,2013-12-26 19:35:00
1:55 PM,52.5,36.5,54,30.37,10.0,North,3.5,-,N/A,,Clear,350,2013-12-26 19:55:00
2:15 PM,52.7,36.0,53,30.36,10.0,NNW,4.6,-,N/A,,Clear,340,2013-12-26 20:15:00
2:35 PM,53.1,36.1,53,30.36,10.0,Calm,Calm,-,N/A,,Clear,0,2013-12-26 20:35:00
2:55 PM,53.2,36.3,53,30.36,10.0,NNW,4.6,-,N/A,,Clear,340,2013-12-26 20:55:00
3:15 PM,52.9,36.1,53,30.37,10.0,NW,3.5,-,N/A,,Clear,320,2013-12-26 21:15:00
3:35 PM,53.1,36.0,52,30.37,10.0,North,3.5,-,N/A,,Clear,350,2013-12-26 21:35:00
3:55 PM,52.9,36.1,53,30.37,10.0,NNW,3.5,-,N/A,,Clear,340,2013-12-26 21:55:00
4:15 PM,52.9,36.3,53,30.37,10.0,NNW,3.5,-,N/A,,Clear,330,2013-12-26 22:15:00
4:35 PM,52.2,36.9,56,30.37,10.0,North,3.5,-,N/A,,Clear,360,2013-12-26 22:35:00
4:55 PM,51.3,36.0,56,30.37,10.0,NE,3.5,-,N/A,,Clear,40,2013-12-26 22:55:00
5:15 PM,50.7,36.0,57,30.37,10.0,NNE,3.5,-,N/A,,Clear,30,2013-12-26 23:15:00
5:35 PM,48.6,35.6,61,30.38,10.0,NE,3.5,-,N/A,,Clear,50,2013-12-26 23:35:00
5:55 PM,48.2,35.6,62,30.38,10.0,East,3.5,-,N/A,,Clear,80,2013-12-26 23:55:00
6:15 PM,46.6,35.6,66,30.39,10.0,East,3.5,-,N/A,,Clear,100,2013-12-27 00:15:00
6:35 PM,45.0,35.6,70,30.38,10.0,East,4.6,-,N/A,,Clear,100,2013-12-27 00:35:00
6:55 PM,42.8,34.0,71,30.39,10.0,ESE,3.5,-,N/A,,Clear,120,2013-12-27 00:55:00
7:15 PM,41.5,35.1,78,30.39,10.0,Calm,Calm,-,N/A,,Clear,0,2013-12-27 01:15:00
7:35 PM,42.8,37.9,83,30.40,10.0,Calm,Calm,-,N/A,,Clear,0,2013-12-27 01:35:00
7:55 PM,42.3,39.6,90,30.40,7.0,Calm,Calm,-,N/A,,Clear,0,2013-12-27 01:55:00
8:15 PM,40.6,37.8,89,30.41,10.0,Calm,Calm,-,N/A,,Clear,0,2013-12-27 02:15:00
8:35 PM,40.1,36.5,87,30.41,10.0,Calm,Calm,-,N/A,,Clear,0,2013-12-27 02:35:00
8:55 PM,39.2,36.3,89,30.41,7.0,Calm,Calm,-,N/A,,Clear,0,2013-12-27 02:55:00
9:15 PM,40.1,37.6,91,30.41,10.0,Calm,Calm,-,N/A,,Clear,0,2013-12-27 03:15:00
9:35 PM,36.9,34.2,90,30.42,7.0,Calm,Calm,-,N/A,,Clear,0,2013-12-27 03:35:00
9:55 PM,37.0,34.9,92,30.42,7.0,Calm,Calm,-,N/A,,Clear,0,2013-12-27 03:55:00
10:15 PM,37.6,35.6,93,30.41,7.0,Calm,Calm,-,N/A,,Clear,0,2013-12-27 04:15:00
10:35 PM,36.3,34.3,93,30.42,7.0,Calm,Calm,-,N/A,,Clear,0,2013-12-27 04:35:00
10:55 PM,36.3,35.1,95,30.42,3.0,Calm,Calm,-,N/A,,Clear,0,2013-12-27 04:55:00
11:15 PM,35.6,34.3,95,30.42,5.0,Calm,Calm,-,N/A,,Clear,0,2013-12-27 05:15:00
11:35 PM,35.6,34.7,97,30.41,7.0,SE,4.6,-,N/A,,Clear,140,2013-12-27 05:35:00
11:55 PM,36.7,35.4,95,30.41,7.0,SE,3.5,-,N/A,,Clear,130,2013-12-27 05:55:00